Wind_Speed
7 5 4 5 3 2 10 4 10 13 16 14 10 9 7 13 11 6 4 6 7 2 7 8 6 9 9 9 9 10 11 11 11 11 11 9 8 7 5 4 3 2 1 1 2 2 3 4 4
6 6 7 4 5 13 15 14 11 7 8 5 4 7 10 1 9 9 7 6 5 5 7 8 5 8 9 9 10 10 10 10 10 9 8 8 8 7 6 5 4 3 2 1 0 1 2 2 3
6 7 5 1 8 12 7 7 6 6 8 7 3 4 3 9 9 7 8 6 1 6 7 8 5 7 8 8 8 8 8 8 8 8 8 7 7 6 5 4 2 2 1 1 2 2 2 2 3
7 9 2 5 10 12 6 3 5 3 0 1 4 4 4 10 6 5 3 5 2 1 7 7 5 6 7 8 8 9 9 8 7 6 5 4 4 3 3 2 2 2 3 3 3 4 4 4 4
6 4 2 7 14 17 4 5 2 1 3 4 2 2 4 6 5 3 5 5 2 1 6 6 4 5 7 8 8 8 7 7 6 5 5 4 4 4 3 3 3 3 3 3 4 5 5 5 6
6 2 5 16 21 3 5 7 6 2 10 3 4 2 5 2 4 3 6 3 3 6 7 6 6 8 7 7 7 6 6 6 6 6 6 7 7 7 7 7 7 8 7 7 7 7 7 7 7
7 3 10 16 15 7 3 3 1 5 8 7 8 4 3 5 6 6 5 6 5 4 5 7 8 9 9 9 9 9 9 8 9 9 10 10 11 11 12 12 12 12 12 12 12 12 12 12 12
5 3 7 10 12 8 5 3 3 7 5 9 6 9 8 7 9 7 12 13 13 13 10 10 11 11 12 12 12 12 13 14 14 14 14 14 15 16 17 16 16 17 17 17 17 16 16 16 16
5 5 2 8 9 5 1 5 4 5 3 6 7 9 9 5 6 6 10 16 17 11 15 17 16 17 17 17 16 15 16 15 15 16 16 17 18 18 19 21 21 21 22 22 22 20 18 18 19
2 9 7 7 10 11 6 6 2 4 8 7 7 1 6 4 3 6 9 13 15 14 12 25 16 16 18 16 14 16 16 16 16 17 19 19 20 22 23 24 23 22 21 24 24 22 19 19 20
7 12 13 11 11 15 17 10 7 4 2 5 7 4 1 2 4 5 6 12 18 21 23 14 17 13 13 10 13 14 13 14 16 18 18 19 20 22 25 27 27 25 24 24 25 24 22 20 20
8 9 14 9 11 14 17 20 15 13 2 6 4 9 7 8 6 8 8 12 15 18 10 18 6 20 13 19 23 19 18 19 27 29 27 24 24 24 28 28 31 28 28 27 25 27 26 30 33
13 15 16 15 15 18 20 12 9 8 7 6 10 11 12 11 12 10 12 15 15 11 13 8 3 6 14 18 19 19 21 24 20 21 27 36 36 28 27 27 36 32 33 30 33 30 32 31 30
16 18 18 16 16 20 15 6 11 8 7 10 13 14 15 13 10 12 15 14 15 10 12 8 9 13 16 19 21 20 19 18 15 19 25 23 25 22 25 22 23 25 27 28 30 33 34 36 35
16 16 12 10 9 13 9 10 11 13 15 11 13 15 20 18 16 16 15 14 12 11 8 6 10 12 17 19 21 15 19 15 24 31 29 28 33 33 32 33 31 30 32 30 30 30 32 33 35
12 10 13 16 7 8 10 12 16 9 11 13 14 16 18 18 19 19 17 14 12 8 5 5 9 10 12 14 14 17 22 24 25 25 28 27 30 31 33 35 34 31 31 33 35 36 37 35 34
7 8 9 9 5 8 6 10 3 6 11 11 15 12 13 18 14 13 11 10 4 1 1 4 5 6 8 10 12 16 18 20 21 23 25 27 29 31 32 34 36 37 38 37 37 39 42 42 38
9 9 12 13 10 7 6 9 10 9 18 19 17 18 13 5 17 12 4 2 1 2 4 7 10 14 18 17 16 17 18 19 19 20 23 26 28 29 30 30 30 31 34 39 41 39 39 40 50
7 14 16 18 12 11 3 2 14 14 10 21 19 16 13 24 12 10 2 5 7 8 11 15 18 20 21 22 21 20 18 17 19 21 22 23 24 26 28 32 34 36 40 39 37 37 35 36 40
14 17 20 21 15 10 5 5 11 13 14 14 19 16 13 6 2 9 1 2 7 12 16 20 24 24 25 24 24 23 22 20 18 18 19 21 24 27 30 32 34 35 37 35 34 34 33 32 34
13 14 15 15 17 11 11 4 6 6 9 12 12 10 10 10 11 14 4 6 9 13 19 24 26 28 28 28 27 25 22 20 20 20 20 22 24 26 28 30 32 33 34 33 32 32 31 29 27
18 16 15 13 13 10 8 0 7 5 12 9 7 9 6 5 6 5 7 7 10 18 23 25 27 27 27 27 27 25 24 22 21 23 25 27 28 30 32 33 31 30 28 30 31 31 30 30 28
17 12 11 12 11 14 12 1 10 12 16 16 12 6 3 7 12 11 15 13 20 25 29 28 28 29 29 27 26 24 22 20 21 23 26 29 31 32 34 35 34 31 28 28 29 31 31 32 32
11 17 20 20 16 6 3 6 9 15 15 16 19 16 17 15 18 21 16 18 24 28 30 29 29 29 29 30 30 28 23 20 21 24 26 28 31 32 33 33 31 28 28 29 30 31 31 33 34
11 10 4 2 1 5 4 4 7 10 20 23 21 22 14 13 17 23 22 22 25 29 31 32 31 30 29 30 31 30 30 29 26 25 26 28 30 29 31 31 31 33 34 34 34 35 35 36 38
9 8 6 2 1 2 3 6 5 6 5 14 19 23 16 14 23 21 22 27 29 32 31 31 30 28 30 32 32 29 26 26 29 32 32 33 36 38 38 40 40 41 41 42 42 43 42 41 42
2 5 3 5 8 2 4 5 9 6 5 11 22 18 17 21 20 20 22 22 28 29 29 29 28 30 32 31 31 31 32 32 32 33 35 37 39 41 43 45 46 45 45 45 45 46 47 46 45
8 8 4 3 3 3 2 8 6 13 12 18 20 18 22 21 21 21 22 23 28 29 29 28 29 30 30 30 30 30 31 32 34 36 37 39 41 43 45 45 45 45 45 46 47 48 48 48 49
8 7 5 3 4 5 1 4 4 5 12 24 27 25 22 20 22 23 22 26 27 28 27 28 28 28 28 27 28 30 31 33 35 37 39 40 41 42 42 43 45 46 47 47 48 47 48 49 50
11 8 5 5 5 6 4 7 8 4 6 16 24 23 22 21 23 22 24 25 28 26 24 25 24 25 24 24 25 27 30 33 35 37 38 40 41 42 44 46 47 48 48 49 49 49 50 50 51
Wind_Direction
168 159 149 137 150 27 350 4 130 122 100 105 102 92 59 62 63 93 76 68 90 117 202 192 195 191 188 180 178 173 168 164 163 163 160 162 161 159 162 162 156 142 109 53 13 8 6 3 357
154 145 136 113 30 25 76 97 90 65 70 56 51 30 28 10 67 58 38 41 131 185 208 205 209 215 206 202 197 189 182 180 176 174 171 173 175 177 181 180 181 183 185 178 256 332 347 345 328
147 143 135 286 37 25 59 102 76 78 29 348 12 149 1 30 60 65 35 42 120 189 203 206 247 218 215 216 225 219 207 196 189 190 190 192 193 194 194 195 199 208 227 291 315 325 330 332 327
160 155 330 30 358 342 290 116 112 84 261 326 240 338 60 53 31 72 50 49 66 161 200 212 256 209 218 223 220 223 226 223 222 228 240 247 260 261 264 283 303 326 338 336 330 332 339 335 322
171 196 14 344 342 348 158 214 147 54 186 262 255 149 64 29 9 76 96 69 70 48 202 217 227 228 251 241 235 234 241 251 256 256 261 264 265 267 272 277 288 284 276 280 292 303 309 313 312
187 225 2 356 344 73 192 280 288 344 51 111 314 256 338 30 186 171 155 115 146 198 208 213 219 221 236 239 242 245 250 255 259 266 275 279 278 276 273 270 267 265 265 268 272 273 271 270 271
208 259 22 7 352 104 154 147 55 322 13 35 50 36 73 315 228 234 188 184 214 173 203 212 223 234 238 236 234 236 241 247 257 261 261 261 267 272 275 273 271 272 275 275 272 268 267 264 262
241 288 60 30 41 91 130 174 173 269 3 21 351 331 312 266 264 212 203 214 212 202 209 240 235 238 235 236 238 240 246 251 254 258 264 268 269 270 271 275 277 277 275 273 270 268 267 269 268
232 283 30 7 356 356 160 145 136 6 320 335 320 319 231 260 293 260 222 217 223 212 211 254 241 231 234 238 244 254 262 268 275 277 279 280 279 279 278 278 277 274 275 273 269 267 268 269 270
300 289 298 288 318 311 296 253 223 171 317 343 21 206 175 191 338 266 253 240 235 219 249 225 247 253 257 259 274 283 282 279 281 284 284 286 282 280 279 278 278 277 277 274 279 275 271 274 267
285 292 298 284 309 298 290 276 238 245 316 303 14 145 302 295 290 269 260 266 271 290 351 10 222 243 262 282 289 281 283 284 283 281 282 288 288 286 287 288 285 283 280 281 280 281 279 278 282
265 258 278 263 283 281 292 297 281 237 224 300 330 300 275 283 308 295 270 275 290 315 348 15 229 241 278 278 299 300 306 300 300 295 289 289 297 289 303 295 292 291 292 286 289 292 288 285 277
249 258 257 246 261 273 287 299 306 251 227 288 268 273 262 258 268 254 250 270 296 318 350 359 193 244 240 243 259 276 285 290 298 311 295 283 282 288 295 298 288 287 297 291 287 283 284 283 281
267 273 273 280 274 273 277 305 318 345 273 263 266 262 265 264 273 289 288 297 303 319 334 321 243 275 271 269 275 281 283 284 303 309 301 301 304 305 307 310 300 295 291 286 284 284 281 278 277
275 287 288 320 297 269 268 286 323 318 260 258 267 263 270 276 284 290 299 303 312 327 329 290 272 269 269 269 273 272 289 276 278 287 289 279 282 289 298 286 285 293 293 294 292 288 283 280 279
281 293 334 333 299 249 256 292 320 261 251 248 262 271 284 287 290 298 308 306 316 334 304 264 255 266 263 265 267 267 273 280 287 290 287 290 290 286 288 291 292 287 284 283 282 283 284 282 278
27 354 329 1 63 360 235 319 35 211 256 263 263 262 271 298 304 308 297 297 313 296 335 19 8 343 334 323 308 297 297 295 294 295 296 295 291 288 287 286 286 287 291 293 290 288 283 276 272
330 334 316 319 331 342 340 295 293 222 244 254 238 264 244 337 331 313 301 320 329 36 21 359 355 347 343 339 321 309 309 308 304 297 292 291 290 292 293 293 291 290 294 301 301 298 290 281 267
307 302 308 306 315 331 12 296 321 299 282 234 225 234 252 278 269 304 88 88 66 23 359 0 357 350 345 338 333 331 327 314 304 300 298 294 294 294 293 292 293 294 298 303 300 298 302 294 286
286 301 303 296 295 308 278 250 310 320 309 268 233 232 259 236 203 261 83 344 346 359 355 355 347 347 349 345 341 337 330 322 313 302 295 293 293 291 292 293 295 298 302 305 306 303 302 303 300
279 295 309 305 313 296 317 296 294 292 274 233 220 218 224 248 247 262 237 315 339 352 351 348 350 352 349 344 340 338 332 324 317 309 299 291 289 290 290 295 299 301 304 306 305 301 301 301 299
280 283 283 294 294 319 339 268 351 169 181 175 180 183 189 210 226 241 296 295 333 338 339 344 350 350 343 338 336 334 328 324 316 309 305 304 303 303 304 306 307 306 301 302 305 306 302 300 297
286 285 282 287 291 298 285 89 124 153 140 140 141 133 237 274 279 280 291 335 336 335 337 343 344 343 337 334 335 333 325 316 308 303 302 303 303 304 305 308 311 307 301 300 298 300 302 302 300
288 292 278 282 269 294 269 181 177 170 195 199 207 219 231 255 299 299 308 320 332 333 334 338 340 341 339 337 332 333 327 320 311 312 310 306 307 310 313 316 314 312 307 304 299 296 294 293 293
279 290 326 349 72 226 171 170 179 186 213 231 240 251 234 271 277 287 300 315 324 336 337 335 335 333 330 325 323 323 321 324 324 322 318 313 312 312 313 314 311 309 308 306 301 296 293 291 290
237 296 218 186 247 283 167 126 183 183 180 226 243 242 247 252 286 293 302 315 328 330 327 326 327 326 323 321 321 322 322 321 323 325 324 323 322 321 318 314 312 310 307 305 301 298 295 291 287
218 220 207 230 263 216 148 149 156 184 186 210 205 217 214 261 269 282 304 309 320 320 321 322 323 322 319 319 320 322 325 325 326 324 323 321 317 314 313 313 311 309 308 306 303 301 298 296 292
244 243 227 167 160 207 200 181 220 210 205 189 198 212 246 271 278 294 299 311 319 324 325 324 322 319 318 317 318 318 318 319 321 320 316 314 313 312 311 310 310 309 308 306 304 302 300 296 293
208 232 238 184 191 158 196 217 197 233 208 212 215 236 247 268 282 289 295 310 322 325 325 323 320 317 315 314 313 314 315 315 313 313 314 314 313 311 311 312 312 311 309 307 304 300 295 290 289
225 195 221 225 209 195 199 251 244 209 208 228 238 238 258 273 277 287 301 315 320 319 318 318 316 312 307 306 307 309 310 312 314 313 312 312 312 314 315 315 313 312 310 308 305 301 296 294 291
Height
3185 3186 3188 3188 3193 3191 3189 3191 3191 3192 3191 3189 3190 3191 3191 3191 3191 3196 3193 3193 3193 3196 3198 3199 3200 3200 3201 3200 3201 3200 3200 3201 3200 3199 3198 3198 3198 3198 3198 3197 3197 3197 3196 3196 3196 3196 3196 3195 3194
3187 3188 3189 3190 3191 3190 3192 3192 3191 3192 3190 3190 3190 3189 3189 3191 3191 3192 3191 3192 3194 3197 3199 3200 3201 3201 3200 3201 3201 3200 3200 3201 3201 3201 3201 3199 3198 3198 3197 3196 3196 3196 3196 3196 3196 3196 3196 3196 3195
3188 3189 3191 3191 3191 3194 3195 3194 3193 3187 3190 3190 3189 3189 3190 3192 3192 3193 3194 3194 3195 3197 3199 3201 3201 3202 3202 3202 3202 3202 3201 3201 3201 3202 3201 3200 3199 3198 3198 3197 3197 3196 3196 3196 3196 3196 3196 3196 3195
3189 3191 3193 3193 3193 3195 3195 3195 3193 3191 3189 3188 3187 3189 3191 3192 3193 3195 3194 3195 3196 3198 3200 3202 3202 3202 3202 3202 3201 3201 3201 3201 3202 3202 3203 3202 3202 3201 3200 3199 3198 3197 3196 3196 3196 3195 3195 3195 3195
3190 3191 3192 3192 3193 3193 3194 3194 3192 3189 3188 3187 3187 3187 3188 3192 3193 3194 3195 3197 3199 3199 3200 3202 3202 3203 3203 3203 3202 3202 3202 3202 3201 3201 3201 3201 3200 3200 3199 3197 3196 3195 3195 3194 3194 3194 3194 3194 3194
3191 3191 3191 3191 3191 3190 3193 3192 3190 3188 3188 3189 3189 3188 3188 3192 3193 3194 3195 3197 3198 3199 3200 3200 3200 3201 3202 3202 3202 3201 3201 3201 3200 3200 3199 3200 3200 3199 3198 3197 3196 3194 3194 3193 3192 3192 3192 3192 3191
3190 3190 3191 3191 3188 3191 3192 3192 3190 3186 3188 3189 3189 3189 3189 3189 3191 3192 3194 3196 3197 3197 3197 3197 3199 3200 3201 3200 3199 3198 3198 3197 3198 3197 3197 3196 3196 3197 3197 3195 3193 3192 3191 3190 3189 3189 3189 3188 3188
3190 3189 3190 3190 3190 3191 3191 3190 3189 3186 3185 3187 3188 3188 3187 3186 3188 3190 3191 3192 3193 3193 3193 3194 3195 3198 3198 3198 3197 3195 3194 3193 3194 3194 3194 3194 3194 3193 3192 3191 3190 3189 3187 3186 3185 3184 3184 3184 3184
3189 3190 3190 3190 3191 3190 3190 3189 3188 3186 3183 3185 3186 3186 3183 3187 3189 3189 3190 3190 3190 3192 3195 3197 3193 3193 3194 3194 3194 3193 3193 3192 3192 3192 3193 3192 3191 3190 3189 3188 3187 3185 3183 3182 3180 3179 3179 3180 3180
3189 3189 3190 3190 3189 3189 3190 3189 3187 3186 3183 3181 3182 3182 3182 3183 3187 3188 3187 3187 3187 3188 3193 3192 3192 3192 3194 3193 3193 3193 3191 3190 3189 3189 3190 3189 3187 3186 3185 3184 3183 3180 3178 3177 3177 3176 3174 3174 3174
3189 3188 3188 3189 3187 3186 3186 3187 3186 3183 3181 3181 3181 3180 3181 3182 3184 3186 3189 3187 3186 3187 3190 3184 3187 3189 3190 3190 3190 3189 3187 3188 3186 3186 3186 3184 3183 3179 3181 3181 3180 3177 3174 3174 3171 3171 3170 3169 3170
3186 3186 3185 3186 3185 3183 3183 3183 3183 3182 3180 3179 3180 3176 3179 3180 3183 3185 3187 3188 3188 3186 3186 3181 3183 3186 3189 3187 3186 3183 3184 3186 3185 3185 3183 3180 3177 3175 3175 3175 3173 3169 3169 3168 3168 3166 3165 3165 3167
3184 3182 3182 3182 3183 3182 3181 3180 3181 3182 3181 3177 3177 3177 3177 3179 3181 3183 3183 3184 3185 3184 3182 3181 3182 3182 3183 3184 3183 3181 3180 3180 3180 3180 3177 3177 3173 3173 3172 3171 3169 3166 3162 3162 3161 3161 3161 3160 3159
3182 3181 3180 3180 3180 3179 3179 3178 3178 3181 3179 3177 3176 3177 3177 3177 3180 3181 3182 3182 3181 3181 3181 3181 3181 3181 3181 3181 3180 3177 3176 3175 3175 3176 3173 3168 3167 3168 3166 3165 3163 3160 3158 3156 3154 3153 3154 3153 3152
3179 3178 3178 3177 3177 3176 3177 3176 3176 3178 3173 3175 3175 3176 3177 3178 3179 3180 3180 3179 3179 3179 3179 3180 3181 3180 3179 3179 3178 3176 3177 3174 3171 3168 3165 3164 3161 3160 3160 3158 3156 3154 3152 3150 3148 3147 3145 3144 3143
3176 3177 3176 3174 3174 3175 3176 3175 3175 3174 3172 3173 3173 3175 3175 3177 3178 3177 3177 3177 3177 3177 3177 3177 3177 3177 3178 3177 3176 3174 3171 3169 3167 3163 3160 3158 3157 3156 3154 3152 3149 3146 3144 3142 3140 3139 3138 3136 3135
3174 3174 3175 3175 3173 3173 3176 3176 3175 3175 3171 3172 3171 3173 3172 3174 3175 3175 3174 3174 3174 3175 3175 3175 3175 3175 3174 3172 3171 3169 3166 3163 3160 3157 3155 3153 3152 3150 3148 3145 3142 3140 3137 3135 3133 3131 3129 3127 3126
3173 3174 3174 3175 3175 3174 3173 3173 3174 3175 3170 3170 3170 3170 3169 3171 3173 3172 3173 3172 3172 3173 3173 3173 3172 3170 3168 3167 3165 3163 3160 3158 3154 3152 3151 3149 3147 3144 3141 3138 3136 3133 3131 3128 3125 3122 3120 3116 3115
3173 3172 3172 3172 3173 3172 3173 3171 3170 3170 3169 3169 3169 3169 3167 3171 3173 3175 3172 3171 3171 3171 3170 3168 3166 3165 3164 3163 3160 3158 3155 3152 3150 3148 3146 3144 3142 3139 3135 3132 3130 3126 3123 3120 3116 3114 3111 3108 3103
3171 3170 3169 3168 3170 3170 3169 3171 3171 3167 3168 3170 3169 3167 3166 3168 3167 3174 3172 3171 3169 3168 3166 3163 3161 3160 3158 3157 3155 3153 3150 3147 3145 3143 3141 3139 3136 3133 3130 3126 3124 3120 3117 3113 3108 3104 3102 3099 3093
3169 3168 3167 3167 3164 3164 3166 3168 3166 3164 3165 3167 3168 3167 3166 3165 3167 3171 3170 3168 3167 3167 3164 3162 3160 3156 3153 3151 3148 3146 3143 3141 3139 3136 3134 3131 3128 3126 3123 3121 3117 3112 3108 3105 3101 3097 3094 3092 3089
3165 3166 3164 3165 3164 3164 3164 3167 3163 3161 3161 3164 3164 3166 3167 3167 3167 3168 3167 3167 3166 3165 3164 3162 3158 3155 3151 3147 3143 3140 3137 3135 3133 3130 3126 3124 3121 3119 3116 3113 3110 3107 3103 3099 3095 3091 3087 3084 3083
3163 3162 3162 3162 3161 3161 3162 3164 3167 3164 3162 3162 3162 3164 3165 3165 3165 3164 3165 3164 3161 3161 3160 3157 3154 3152 3147 3143 3140 3137 3134 3131 3127 3124 3121 3119 3116 3113 3109 3106 3103 3100 3097 3093 3090 3087 3082 3078 3075
3161 3160 3159 3158 3158 3158 3157 3160 3164 3163 3162 3162 3159 3159 3160 3162 3162 3163 3163 3163 3160 3159 3157 3152 3149 3145 3141 3137 3133 3131 3128 3125 3122 3119 3116 3112 3109 3106 3102 3099 3095 3091 3088 3085 3082 3079 3076 3072 3068
3158 3159 3157 3156 3156 3157 3156 3156 3158 3159 3159 3159 3159 3158 3160 3161 3160 3159 3161 3161 3160 3156 3150 3146 3143 3141 3137 3133 3131 3128 3124 3120 3117 3115 3111 3107 3103 3100 3096 3092 3088 3084 3080 3077 3073 3069 3067 3063 3059
3155 3157 3157 3158 3159 3157 3156 3156 3157 3158 3158 3160 3159 3157 3159 3160 3159 3159 3158 3156 3153 3150 3146 3142 3139 3136 3131 3127 3124 3122 3120 3116 3112 3108 3104 3099 3095 3091 3087 3083 3080 3075 3071 3067 3062 3058 3054 3052 3049
3153 3155 3155 3155 3156 3155 3156 3156 3157 3155 3155 3156 3154 3155 3157 3158 3158 3158 3156 3154 3151 3147 3142 3138 3134 3130 3126 3122 3118 3114 3111 3108 3106 3102 3098 3094 3089 3085 3080 3074 3070 3065 3061 3056 3051 3046 3042 3039 3035
3152 3154 3154 3154 3156 3155 3154 3153 3152 3153 3153 3153 3153 3154 3156 3156 3155 3154 3153 3150 3146 3141 3138 3134 3130 3125 3120 3116 3113 3110 3107 3103 3100 3096 3093 3088 3083 3078 3072 3067 3062 3056 3051 3046 3041 3036 3031 3026 3021
3151 3151 3152 3152 3152 3152 3155 3150 3149 3149 3151 3150 3152 3152 3153 3153 3152 3151 3149 3146 3142 3137 3133 3129 3125 3121 3117 3113 3110 3106 3103 3099 3095 3090 3085 3080 3076 3070 3064 3058 3052 3046 3040 3034 3029 3024 3018 3013 3008
3149 3148 3150 3149 3151 3149 3149 3147 3145 3147 3148 3147 3147 3148 3148 3149 3148 3148 3145 3141 3138 3134 3131 3127 3122 3118 3114 3111 3107 3104 3099 3094 3089 3085 3079 3074 3069 3063 3055 3049 3043 3036 3030 3023 3017 3010 3004 2999 2995